#timestamp,LO_Frequency,Hit,StdDev 
1659056415.4,286047002.2,N
1659056435.3,286047002.0,N
1659056455.1,286047003.6,N
1659056475.9,286047003.8,N
1659056495.7,286047004.3,N
1659056515.5,286047003.6,N
1659056535.4,286047003.8,N
1659056555.2,286047002.0,N
1659056575.0,286047001.3,N
1659056576.0,286047001.3,N
1659056595.8,286047001.3,N
1659056615.6,286047003.2,N
1659056635.5,286047002.6,N
1659056655.3,286047000.5,N
1659056675.1,286047000.1,N
1659056695.9,286046999.0,N
1659056715.7,286046996.9,N
1659056735.6,286047001.0,N
1659056755.4,286047002.8,N
1659056775.2,286047004.3,N
1659056795.1,286047002.8,N
1659056796.0,286047002.8,N
1659056815.8,286047000.0,N
1659056835.6,286047001.6,N
1659056855.5,286047002.2,N
1659056875.3,286047002.1,N
1659056895.2,286047002.0,N
1659056915.9,286047000.3,N
1659056935.7,286046998.7,N
1659056955.6,286047001.8,N
1659056975.4,286047005.6,Y
1659056995.2,286047005.1,P
1659057015.1,286047006.5,P
1659057016.0,286047006.5,P
1659057035.8,286047004.5,N
1659057055.7,286047007.6,Y
1659057075.5,286047001.0,P
1659057095.3,286047001.2,N
1659057115.2,286047002.5,N
1659057135.0,286046999.0,N
1659057135.9,286046999.0,N
1659057155.7,286046997.2,N
1659057175.6,286046995.1,N
1659057195.4,286046995.8,N
1659057215.3,286046996.2,N
1659057235.1,286046993.5,N
1659057236.0,286046993.5,N
1659057255.8,286046996.3,N
1659057275.7,286046993.5,N
1659057295.5,286046994.0,N
1659057315.3,286046994.1,N
1659057335.2,286046995.4,N
1659057355.0,286046996.9,N
1659057355.9,286046996.9,N
1659057375.8,286047001.0,N
1659057395.6,286046999.8,N
1659057415.4,286046999.0,N
1659057435.3,286047001.2,N
1659057455.1,286046997.7,N
1659057475.8,286046996.7,N
1659057495.7,286046999.1,N
1659057515.5,286046998.3,N
1659057535.4,286046995.2,N
1659057555.2,286046997.7,N
1659057575.0,286046999.6,N
1659057575.9,286046999.6,N
1659057595.8,286046997.5,N
1659057615.6,286047001.0,N
1659057635.4,286046998.3,N
1659057655.3,286046998.0,N
1659057675.1,286046997.9,N
1659057695.9,286046995.9,N
1659057715.7,286046992.1,Y
1659057735.5,286046994.3,P
1659057755.4,286046995.5,P
1659057775.2,286046991.8,P
1659057795.0,286046990.1,Y
1659057795.9,286046990.1,P
1659057815.8,286046995.6,N
1659057835.6,286046995.2,N
1659057855.5,286046997.3,N
1659057875.3,286046997.3,N
1659057895.1,286046998.3,N
1659057915.9,286047000.6,N
1659057935.7,286046998.5,N
1659057955.5,286047002.2,N
1659057975.4,286047002.6,N
1659057995.2,286047001.9,N
1659058015.1,286047002.3,N
1659058016.0,286047002.3,N
1659058035.8,286047002.4,N
1659058055.6,286047001.1,N
1659058075.5,286046999.7,N
1659058095.3,286047002.9,N
1659058115.1,286047004.5,N
1659058135.9,286047004.8,N
1659058155.7,286047005.4,N
1659058175.6,286047007.5,N
1659058195.4,286047004.9,N
1659058215.2,286047003.1,N
1659058235.1,286047004.2,N
1659058236.0,286047004.2,N
1659058255.8,286047002.7,N
1659058275.6,286047001.3,N
1659058295.5,286047002.1,N
1659058315.3,286047000.6,N
1659058335.1,286046998.5,N
1659058355.9,286046998.6,N
1659058375.7,286046996.8,N
1659058395.6,286046997.8,N
1659058415.4,286046997.2,N
1659058435.2,286046997.6,N
1659058455.1,286046995.4,N
1659058456.0,286046995.4,N
1659058475.8,286046997.8,N
1659058495.7,286046998.0,N
1659058515.5,286046997.0,N
1659058535.3,286046998.0,N
1659058555.2,286046998.0,N
1659058575.0,286046995.3,N
1659058575.9,286046995.3,N
1659058595.7,286046997.5,N
1659058615.6,286046994.9,N
1659058635.4,286046993.3,N
1659058655.3,286046995.3,N
1659058675.1,286046999.5,N
1659058676.0,286046999.5,N
1659058695.8,286046998.9,N
1659058715.7,286046996.6,N
1659058735.5,286046996.6,N
1659058755.3,286046998.4,N
1659058775.2,286046999.1,N
1659058795.0,286046997.6,N
1659058795.9,286046997.6,N
1659058815.8,286046996.9,N
1659058835.6,286046998.8,N
1659058855.4,286046998.8,N
1659058875.3,286046996.9,N
1659058895.1,286046995.5,Y
1659058915.8,286046998.9,P
1659058935.7,286046998.9,N
1659058955.5,286047002.0,N
1659058975.4,286047002.0,N
1659058995.2,286047001.7,N
1659059015.0,286047002.5,N
1659059015.9,286047002.5,N
1659059035.8,286047000.5,N
1659059055.6,286047000.6,N
1659059075.4,286047000.9,N
1659059095.3,286047001.0,N
1659059115.1,286047002.3,N
1659059135.9,286047001.9,N
1659059155.7,286046999.7,N
1659059175.5,286047002.3,N
1659059195.4,286047002.5,N
1659059215.2,286047002.4,N
1659059235.0,286047001.3,N
1659059235.9,286047001.3,N
1659059255.8,286047004.3,N
1659059275.6,286047004.7,Y
1659059295.5,286047007.5,P
1659059315.3,286047005.8,N
1659059335.1,286047004.6,N
1659059355.9,286047007.0,Y
1659059375.7,286047000.1,P
1659059395.5,286046998.6,N
1659059415.4,286046999.1,N
1659059435.2,286046997.0,N
1659059455.1,286046998.1,N
1659059456.0,286046998.1,N
1659059475.8,286047002.8,N
1659059495.6,286047002.2,N
1659059515.5,286046998.3,N
1659059535.3,286046998.2,N
1659059555.1,286047004.3,N
1659059575.9,286047002.1,N
1659059595.7,286047004.2,N
1659059615.6,286047002.6,N
1659059635.4,286047001.1,N
1659059655.2,286047002.8,N
1659059675.1,286047001.8,N
1659059676.0,286047001.8,N
1659059695.8,286047001.7,N
1659059715.6,286047002.6,N
1659059735.5,286047002.7,N
1659059755.3,286047002.1,N
1659059775.2,286047001.7,N
1659059795.9,286047002.4,N
1659059815.7,286047001.7,N
1659059835.6,286047004.9,N
1659059855.4,286047007.6,Y
1659059875.2,286047002.4,P
1659059895.1,286047002.5,P
1659059896.0,286047002.5,P
1659059915.8,286047002.6,Y
1659059935.7,286046999.8,P
1659059955.5,286046996.8,N
1659059975.3,286046998.6,N
1659059995.2,286046998.2,N
